Weather Roundup
Issued by NWS

Home | Current Version | Previous Version | Text Only | Print | Product List | Glossary On
Versions: 1 2 3 4 5 6 7 8 9 10 11 12 13 14 15 16 17 18 19 20 21 22 23 24 25 26 27 28 29 30 31 32 33 34 35 36 37 38 39 40 41 42 43 44 45 46 47 48 49 50
000
NZUS93 KARX 161610
HRRWXR

CURRENT HOURLY OBSERVATIONS ACROSS
MUCH OF THE UPPER MISSISSIPPI VALLEY
NATIONAL WEATHER SERVICE LA CROSSE WI
1100 AM CDT TUE SEP 16 2014


...SOUTHEAST MINNESOTA...


CITY           SKY/WX    TMP DP  RH WIND       PRES   REMARKS
ROCHESTER      SUNNY     59  42  53 SW9       30.20F
ROCHESTER/MAYO FAIR      58  38  48 W6        30.19F
WINONA         SUNNY     57  46  67 CALM      30.19F
AUSTIN         SUNNY     57  45  62 SW8       30.19F
ALBERT LEA     SUNNY     59  43  55 SW8       30.18F
DODGE CENTER   SUNNY     57  45  62 SW9       30.18F
PRESTON        SUNNY     57  47  70 W6        30.20F
OWATONNA       SUNNY     61  45  55 SW8       30.18F
FARIBAULT      SUNNY     63  41  45 SW9       30.18F
$$

...ELSEWHERE IN MINNESOTA...


CITY           SKY/WX    TMP DP  RH WIND       PRES   REMARKS
MINNEAPOLIS    SUNNY     59  42  53 SW10      30.16F
INTNL FALLS    CLOUDY    55  42  61 W14       29.99R
DULUTH         MOSUNNY   61  39  44 W20G26    30.06F
RED WING       SUNNY     61  43  51 W3        30.16F
REDWOOD FALLS  SUNNY     61  45  55 SW15      30.15F
MANKATO        SUNNY     59  43  55 W9        30.17F
WORTHINGTON    SUNNY     57  43  58 SW14      30.18F
FAIRMONT       SUNNY     61  41  48 SW9G16    30.18F
$$

...SOUTHWEST WISCONSIN...


CITY           SKY/WX    TMP DP  RH WIND       PRES   REMARKS
LA CROSSE      SUNNY     58  46  64 S7        30.20F
PRAIRIE DU CHI SUNNY     54  53  95 CALM      30.21F
BOSCOBEL       SUNNY     58  47  66 S5        30.22F
LONE ROCK      SUNNY     60  45  57 W7        30.21F
PLATTEVILLE    SUNNY     58  44  61 CALM      30.23S
FORT MC COY    SUNNY     55  43  62 W3        30.20F
CAMP DOUGLAS   SUNNY     59  45  58 W10       30.18F
VIROQUA        FAIR      58  43  57 SW8       30.20F
WIS DELLS      SUNNY     58  40  50 SW8       30.19F
$$

...ELSEWHERE IN WISCONSIN...


CITY           SKY/WX    TMP DP  RH WIND       PRES   REMARKS
MILWAUKEE      SUNNY     59  38  45 VRB6      30.21S
MADISON        MOSUNNY   59  40  49 VRB7      30.20F
GREEN BAY      SUNNY     59  42  53 W10       30.16F
EAU CLAIRE     SUNNY     58  42  55 W9        30.16F
BLACK RVR FLS  FAIR      56  46  68 SW5       30.18F
MEDFORD        SUNNY     56  42  59 W9        30.15F
WAUSAU         SUNNY     58  40  51 W10       30.14F
WIS RAPIDS     SUNNY     58  42  55 W9        30.19F
MARSHFIELD     SUNNY     59  42  53 W10       30.16F
RICE LAKE      SUNNY     59  38  46 SW9       30.16F
$$

...NORTHEAST IOWA...


CITY           SKY/WX    TMP DP  RH WIND       PRES   REMARKS
WATERLOO       SUNNY     60  44  55 SW9       30.22F
DUBUQUE        SUNNY     58  40  51 VRB5      30.23F
DECORAH        SUNNY     57  45  62 VRB5      30.20F
MASON CITY     SUNNY     59  44  57 SW10      30.22F
CHARLES CITY   SUNNY     59  43  55 SW8       30.22F
OELWEIN        SUNNY     59  43  55 W7        30.23F
$$

...ELSEWHERE IN IOWA...


CITY           SKY/WX    TMP DP  RH WIND       PRES   REMARKS
DES MOINES     MOSUNNY   60  47  61 S6        30.23F
IOWA CITY      MOSUNNY   59  48  67 CALM      30.25F
FORT DODGE     SUNNY     61  45  55 SW8       30.22F
MARSHALLTOWN   SUNNY     59  44  57 SW7       30.22F
CEDAR RAPIDS   SUNNY     59  46  62 VRB3      30.23F
$$

...NORTHERN ILLINOIS...


CITY           SKY/WX    TMP DP  RH WIND       PRES   REMARKS
CHICAGO-OHARE  MOSUNNY   59  40  49 VRB3      30.20F
DUPAGE         SUNNY     63  42  46 VRB3      30.21F
CHICAGO-MIDWAY MOSUNNY   61  48  62 S3        30.20F
MOLINE         SUNNY     60  45  57 CALM      30.24F
ROCKFORD       MOSUNNY   60  42  51 N7        30.23F
STERLING       SUNNY     61  45  55 NE3       30.23F
PEORIA         SUNNY     61  50  67 CALM      30.23F
$$

NOTE: "FAIR" INDICATES FEW OR NO CLOUDS BELOW 12,000 FEET WITH NO
SIGNIFICANT WEATHER AND/OR OBSTRUCTIONS TO VISIBILITY. WIND
SPEEDS ARE IN MILES-PER-HOUR.



USA.gov is the U.S. government's official web portal to all federal, state and local government web resources and services.